Joliet, IL

5:25 PM CDT on September 21, 2017 (GMT -0500)
Joliet Regional

Weather History for KJOT - March, 2013

Change the Weather History Date:

Tuesday, March 12, 2013

  Actual Average (KARR) Record (KARR)
Temperature  
Mean Temperature 33 °F -  
Max Temperature 38 °F 40 °F 64 °F (2016)
Min Temperature 28 °F 23 °F 5 °F (1999)
Degree Days  
Heating Degree Days 32    
Moisture  
Dew Point 25 °F    
Average Humidity 76    
Maximum Humidity 96    
Minimum Humidity 58    
Precipitation  
Precipitation 0.00 in - - ()
Sea Level Pressure  
Sea Level Pressure 29.93 in    
Wind  
Wind Speed 12 mph (West)    
Max Wind Speed 18 mph    
Max Gust Speed 29 mph    
Visibility 9 miles    
Events Snow    
Averages and records for this station are not official NWS values.
T = Trace of Precipitation, MM = Missing Value Source: NWS Daily Summary

Daily Weather History Graph

Daily Weather History Graph

Search for Another Location

Airport or City:

Trip Planner

Search our weather history database for the weather conditions in past years. The results will help you decide how hot, cold, wet, or windy it might be!

Date:

Astronomy

Mar. 12, 2013 Rise Set
Actual Time 7:09 AM CDT 6:56 PM CDT
Civil Twilight 6:41 AM CDT 7:23 PM CDT
Nautical Twilight 6:09 AM CDT 7:56 PM CDT
Astronomical Twilight 5:36 AM CDT 8:28 PM CDT
Moon 7:14 AM CDT (3/12) 8:12 PM CDT (3/12)
Length of Visible Light 12h 42m
Length of Day
11h 47m
New Moon, 1% of the Moon is Illuminated
Mar 12
New Moon
Mar 19
First Quarter
Mar 27
Full
Apr 2
Last Quarter
Apr 10
New

Hourly Weather History & Observations

Time (CDT) Temp. Windchill Dew Point Humidity Pressure Visibility Wind Dir Wind Speed Gust Speed Precip Events Conditions
12:15 AM 32.0 °F 22.1 °F 28.2 °F 86% 29.82 in 10.0 mi West 13.8 mph 19.6 mph N/A   Overcast
12:55 AM 32.0 °F 23.6 °F 28.4 °F 87% 29.83 in 10.0 mi West 10.4 mph - N/A   Overcast
1:15 AM 32.0 °F 22.5 °F 28.2 °F 86% 29.83 in 10.0 mi West 12.7 mph 19.6 mph N/A   Overcast
1:35 AM 32.0 °F 21.6 °F 27.7 °F 84% 29.84 in 10.0 mi West 15.0 mph 20.7 mph N/A   Overcast
1:55 AM 31.8 °F 22.3 °F 27.5 °F 84% 29.84 in 10.0 mi West 12.7 mph 16.1 mph N/A   Overcast
2:35 AM 32.0 °F 22.1 °F 26.6 °F 80% 29.86 in 10.0 mi West 13.8 mph 20.7 mph N/A   Overcast
2:55 AM 31.1 °F 21.9 °F 25.9 °F 81% 29.86 in 10.0 mi West 11.5 mph 20.7 mph N/A   Overcast
3:35 AM 30.2 °F 21.3 °F 24.8 °F 80% 29.86 in 10.0 mi West 10.4 mph 20.7 mph N/A   Overcast
3:55 AM 30.6 °F 22.4 °F 25.0 °F 80% 29.86 in 10.0 mi West 9.2 mph 17.3 mph N/A   Overcast
4:15 AM 30.6 °F 21.2 °F 25.0 °F 80% 29.87 in 10.0 mi West 11.5 mph 21.9 mph N/A   Overcast
4:35 AM 30.6 °F 21.8 °F 24.8 °F 79% 29.87 in 10.0 mi West 10.4 mph 17.3 mph N/A   Overcast
4:55 AM 30.6 °F 20.2 °F 24.6 °F 79% 29.88 in 10.0 mi West 13.8 mph 20.7 mph N/A   Overcast
5:15 AM 30.6 °F 23.1 °F 24.8 °F 79% 29.88 in 10.0 mi West 8.1 mph - N/A   Overcast
5:35 AM 30.2 °F 19.8 °F 24.8 °F 80% 29.88 in 10.0 mi West 13.8 mph 19.6 mph N/A   Overcast
5:55 AM 29.7 °F 20.7 °F 24.8 °F 82% 29.89 in 10.0 mi West 10.4 mph - N/A   Overcast
6:15 AM 29.7 °F 20.1 °F 24.4 °F 81% 29.89 in 10.0 mi West 11.5 mph 18.4 mph N/A   Overcast
6:55 AM 29.7 °F 22.0 °F 24.3 °F 80% 29.91 in 10.0 mi West 8.1 mph - N/A   Overcast
7:35 AM 29.3 °F 19.6 °F 23.9 °F 80% 29.92 in 10.0 mi West 11.5 mph - N/A   Overcast
7:55 AM 29.3 °F 22.3 °F 23.5 °F 79% 29.91 in 10.0 mi West 6.9 mph - N/A   Mostly Cloudy
8:15 AM 29.3 °F 21.5 °F 23.9 °F 80% 29.92 in 10.0 mi West 8.1 mph - N/A   Mostly Cloudy
8:35 AM 29.3 °F 20.8 °F 23.0 °F 77% 29.92 in 10.0 mi West 9.2 mph 17.3 mph N/A   Mostly Cloudy
8:55 AM 29.8 °F 21.5 °F 23.0 °F 76% 29.92 in 10.0 mi West 9.2 mph - N/A   Scattered Clouds
9:15 AM 30.6 °F 21.8 °F 22.1 °F 71% 29.92 in 10.0 mi West 10.4 mph 17.3 mph N/A   Clear
9:35 AM 31.1 °F 21.4 °F 22.1 °F 69% 29.93 in 10.0 mi WSW 12.7 mph 16.1 mph N/A   Clear
9:55 AM 31.6 °F 24.4 °F 23.0 °F 70% 29.94 in 10.0 mi WSW 8.1 mph - N/A   Clear
10:15 AM 32.0 °F 23.0 °F 22.5 °F 68% 29.94 in 10.0 mi West 11.5 mph 18.4 mph N/A   Clear
10:35 AM 32.0 °F 22.5 °F 21.6 °F 65% 29.94 in 10.0 mi WSW 12.7 mph - N/A   Clear
10:55 AM 32.5 °F 22.7 °F 22.3 °F 66% 29.95 in 10.0 mi West 13.8 mph 20.7 mph N/A   Mostly Cloudy
11:35 AM 32.4 °F 24.0 °F 22.8 °F 68% 29.95 in 10.0 mi West 10.4 mph 24.2 mph N/A   Overcast
11:55 AM 33.1 °F 23.4 °F 24.3 °F 70% 29.95 in 10.0 mi West 13.8 mph 20.7 mph N/A   Mostly Cloudy
12:15 PM 34.2 °F 26.2 °F 25.0 °F 69% 29.94 in 10.0 mi West 10.4 mph 18.4 mph N/A   Mostly Cloudy
12:35 PM 34.7 °F 25.9 °F 25.0 °F 68% 29.94 in 10.0 mi West 12.7 mph 19.6 mph N/A   Mostly Cloudy
12:55 PM 36.0 °F 27.5 °F 23.7 °F 61% 29.94 in 10.0 mi West 12.7 mph 21.9 mph N/A   Scattered Clouds
1:15 PM 36.3 °F 27.1 °F 24.6 °F 63% 29.94 in 10.0 mi West 15.0 mph 19.6 mph N/A   Mostly Cloudy
1:35 PM 36.9 °F 28.7 °F 25.0 °F 62% 29.94 in 10.0 mi West 12.7 mph 24.2 mph N/A   Mostly Cloudy
1:55 PM 36.1 °F 28.7 °F 25.2 °F 64% 29.94 in 10.0 mi West 10.4 mph 21.9 mph N/A   Mostly Cloudy
2:15 PM 36.9 °F 28.7 °F 25.2 °F 63% 29.93 in 10.0 mi WSW 12.7 mph 18.4 mph N/A   Mostly Cloudy
2:35 PM 38.1 °F 30.7 °F 26.2 °F 62% 29.92 in 10.0 mi West 11.5 mph 19.6 mph N/A   Mostly Cloudy
2:55 PM 38.7 °F 30.5 °F 25.0 °F 58% 29.92 in 10.0 mi West 13.8 mph 25.3 mph N/A   Overcast
3:35 PM 32.7 °F 23.9 °F 30.7 °F 92% 29.94 in 0.2 mi West 11.5 mph 23.0 mph N/A Snow Snow
3:55 PM 32.2 °F 24.4 °F 31.1 °F 96% 29.94 in 0.5 mi West 9.2 mph 18.4 mph N/A Snow Snow
4:15 PM 32.2 °F 24.4 °F 31.3 °F 96% 29.94 in 0.8 mi West 9.2 mph 18.4 mph N/A Snow Light Snow
4:35 PM 33.1 °F 25.5 °F 31.5 °F 94% 29.94 in 5.0 mi West 9.2 mph 18.4 mph N/A Snow Light Snow
4:55 PM 33.6 °F 24.6 °F 30.2 °F 87% 29.94 in 10.0 mi West 12.7 mph 21.9 mph N/A   Mostly Cloudy
5:15 PM 33.3 °F 23.2 °F 30.0 °F 88% 29.94 in 3.0 mi West 15.0 mph 25.3 mph N/A Snow Light Snow
5:35 PM 34.3 °F 25.0 °F 27.0 °F 74% 29.94 in 10.0 mi West 13.8 mph 21.9 mph N/A   Scattered Clouds
5:55 PM 34.2 °F 24.8 °F 27.3 °F 76% 29.94 in 10.0 mi West 13.8 mph 21.9 mph N/A   Scattered Clouds
6:15 PM 33.8 °F 25.8 °F 27.7 °F 78% 29.94 in 10.0 mi West 10.4 mph 17.3 mph N/A   Mostly Cloudy
6:35 PM 33.8 °F 22.8 °F 28.4 °F 81% 29.95 in 7.0 mi West 18.4 mph 21.9 mph N/A   Overcast
6:55 PM 31.8 °F 21.8 °F 27.7 °F 85% 29.95 in 10.0 mi WSW 13.8 mph 19.6 mph N/A   Overcast
7:15 PM 31.8 °F 23.3 °F 27.0 °F 82% 29.96 in 10.0 mi West 10.4 mph 16.1 mph N/A   Overcast
7:35 PM 32.0 °F 22.5 °F 26.4 °F 80% 29.96 in 10.0 mi West 12.7 mph 23.0 mph N/A   Overcast
7:55 PM 32.0 °F 22.5 °F 23.9 °F 72% 29.97 in 10.0 mi West 12.7 mph 21.9 mph N/A   Overcast
8:15 PM 31.1 °F 20.5 °F 22.1 °F 69% 29.98 in 10.0 mi WNW 15.0 mph 23.0 mph N/A   Overcast
8:35 PM 30.2 °F 19.8 °F 21.2 °F 69% 29.99 in 10.0 mi West 13.8 mph 28.8 mph N/A   Mostly Cloudy
8:55 PM 30.0 °F 19.5 °F 20.7 °F 68% 30.00 in 10.0 mi West 13.8 mph 25.3 mph N/A   Mostly Cloudy
9:15 PM 29.8 °F 19.8 °F 20.5 °F 68% 30.01 in 10.0 mi West 12.7 mph 25.3 mph N/A   Overcast
9:35 PM 29.7 °F 20.1 °F 21.4 °F 71% 30.01 in 10.0 mi WNW 11.5 mph 20.7 mph N/A   Overcast
9:55 PM 29.3 °F 17.3 °F 20.3 °F 69% 30.02 in 10.0 mi West 17.3 mph 23.0 mph N/A   Overcast
10:15 PM 28.6 °F 18.2 °F 19.8 °F 70% 30.02 in 10.0 mi WNW 12.7 mph 25.3 mph N/A Snow Light Snow
10:35 PM 28.2 °F 16.3 °F 21.0 °F 74% 30.02 in 7.0 mi West 16.1 mph 24.2 mph N/A Snow Light Snow
10:55 PM 28.2 °F 18.3 °F 21.2 °F 75% 30.03 in 10.0 mi West 11.5 mph 20.7 mph N/A   Overcast
11:15 PM 28.0 °F 18.1 °F 20.3 °F 73% 30.03 in 10.0 mi WNW 11.5 mph 17.3 mph N/A   Overcast